Location: El Diablo
(32.4667°N, 116.4500°W)
Time: 03:30:53
(UTC+00:00)

Cosmos 1862 - Pass Details

Date: 10 September 2024
Orbit: 500 x 518 km, 82.5° (Epoch: 06 October)

Event Time Altitude Azimuth Distance (km) Brightness Sun altitude
Rises 12:18:38 0° 338° (NNW) 2,595 6.7 -15.0°
Reaches altitude 10° 12:21:02 10° 324° (NW) 1,706 5.6 -14.5°
Maximum altitude 12:24:03 24° 270° (W) 1,078 4.2 -13.8°
Enters shadow 12:24:08 24° 267° (W) 1,079 4.2 -13.8°
